timestamp,surface_pressure_avg,surface_temp_avg,battery_voltage,lat,long
2020-04-20 00:09:01+00:00,311.738,2.2,12.49,47.84626,-54.09684
2020-04-20 00:19:01+00:00,314.5363,2.11,12.49,47.84626,-54.09684
2020-04-20 00:29:01+00:00,313.5314,2.1,12.49,47.84626,-54.09684
2020-04-20 00:39:01+00:00,297.27299999999997,2.0,12.49,47.84626,-54.09684
2020-04-20 00:49:01+00:00,283.8197,2.0,12.49,47.84626,-54.09684
2020-04-20 00:59:01+00:00,283.7481,2.1,12.49,47.84626,-54.09684
2020-04-20 01:09:01+00:00,277.6531,2.1,12.49,47.84626,-54.09684
2020-04-20 01:19:01+00:00,262.6164,2.07,12.49,47.84626,-54.09684
2020-04-20 01:29:01+00:00,255.5381,2.17,12.49,47.84626,-54.09684
2020-04-20 01:39:01+00:00,255.7981,2.19,12.49,47.84626,-54.09684
2020-04-20 01:49:01+00:00,243.3314,2.2,12.49,47.84626,-54.09684
2020-04-20 01:59:01+00:00,232.7881,2.18,12.49,47.84626,-54.09684
2020-04-20 02:09:01+00:00,232.6364,2.17,12.49,47.84626,-54.09684
2020-04-20 02:19:01+00:00,231.4314,2.16,12.49,47.84626,-54.09684
2020-04-20 02:29:01+00:00,223.1914,2.15,12.49,47.84626,-54.09684
2020-04-20 02:39:01+00:00,220.1914,2.13,12.49,47.84626,-54.09684
2020-04-20 02:49:01+00:00,218.3848,2.12,12.49,47.84626,-54.09684
2020-04-20 02:59:01+00:00,212.3598,2.1,12.49,47.84626,-54.09684
2020-04-20 03:09:01+00:00,206.8798,2.1,12.49,47.84626,-54.09684
2020-04-20 03:19:01+00:00,207.3264,2.1,12.49,47.84626,-54.09684
2020-04-20 03:29:01+00:00,200.1915,2.1,12.49,47.84626,-54.09684
2020-04-20 03:39:01+00:00,195.0815,2.1,12.49,47.84626,-54.09684
2020-04-20 03:49:01+00:00,198.1048,2.1,12.49,47.84626,-54.09684
2020-04-20 03:59:01+00:00,197.9865,2.1,12.49,47.84626,-54.09684
2020-04-20 04:09:01+00:00,192.6314,2.1,12.49,47.84626,-54.09684
2020-04-20 04:19:01+00:00,191.2831,2.14,12.49,47.84626,-54.09684
2020-04-20 04:29:01+00:00,196.5264,2.2,12.49,47.84626,-54.09684
2020-04-20 04:39:01+00:00,198.0248,2.2,12.49,47.84626,-54.09684
2020-04-20 04:49:01+00:00,195.2165,2.2,12.49,47.84626,-54.09684
2020-04-20 04:59:01+00:00,201.3498,2.1,12.49,47.84626,-54.09684
2020-04-20 05:09:01+00:00,209.2548,2.1,12.49,47.84626,-54.09684
2020-04-20 05:19:01+00:00,203.6648,2.1,12.49,47.84626,-54.09684
2020-04-20 05:29:01+00:00,204.3814,2.1,12.49,47.84626,-54.09684
2020-04-20 05:39:01+00:00,218.9031,2.1,12.49,47.84626,-54.09684
2020-04-20 05:49:01+00:00,222.9514,2.1,12.49,47.84626,-54.09684
2020-04-20 05:59:01+00:00,217.6764,2.1,12.49,47.84626,-54.09684
2020-04-20 06:09:01+00:00,222.2314,2.1,12.49,47.84626,-54.09684
2020-04-20 06:19:01+00:00,232.1165,2.1,12.49,47.84626,-54.09684
2020-04-20 06:29:01+00:00,228.2148,2.1,12.49,47.84626,-54.09684
2020-04-20 06:39:01+00:00,225.5732,2.1,12.49,47.84626,-54.09684
2020-04-20 06:49:01+00:00,239.4664,2.06,12.49,47.84626,-54.09684
2020-04-20 06:59:01+00:00,247.6381,2.0,12.49,47.84626,-54.09684
2020-04-20 07:09:01+00:00,244.8714,2.06,12.49,47.84626,-54.09684
2020-04-20 07:19:01+00:00,252.6815,2.04,12.49,47.84626,-54.09684
2020-04-20 07:29:01+00:00,266.8114,2.04,12.49,47.84626,-54.09684
2020-04-20 07:39:01+00:00,270.6331,2.01,12.49,47.84626,-54.09684
2020-04-20 07:49:01+00:00,267.1898,2.03,12.49,47.84626,-54.09684
2020-04-20 07:59:01+00:00,274.2397,2.05,12.49,47.84626,-54.09684
2020-04-20 08:09:01+00:00,277.5097,2.01,12.49,47.84626,-54.09684
2020-04-20 08:19:01+00:00,276.0664,2.0,12.49,47.84626,-54.09684
2020-04-20 08:29:01+00:00,279.8463,2.01,12.49,47.84626,-54.09684
2020-04-20 08:39:01+00:00,296.0813,2.03,12.49,47.84626,-54.09684
2020-04-20 08:49:01+00:00,301.8064,2.0,12.49,47.84626,-54.09684
2020-04-20 08:59:01+00:00,300.70799999999997,2.0,12.49,47.84626,-54.09684
2020-04-20 09:09:01+00:00,305.2763,2.0,12.49,47.84626,-54.09684
2020-04-20 09:19:01+00:00,315.9213,2.0,12.49,47.84626,-54.09684
2020-04-20 09:29:01+00:00,315.4213,2.0,12.49,47.84626,-54.09684
2020-04-20 09:39:01+00:00,311.9113,2.0,12.49,47.84626,-54.09684
2020-04-20 09:49:01+00:00,316.6846,2.01,12.49,47.84626,-54.09684
2020-04-20 09:59:01+00:00,320.7664,2.07,12.49,47.84626,-54.09684
2020-04-20 10:09:01+00:00,313.938,2.04,12.49,47.84626,-54.09684
2020-04-20 10:19:01+00:00,312.4264,2.02,12.57,47.84626,-54.09684
2020-04-20 10:29:01+00:00,318.1363,2.05,12.57,47.84626,-54.09684
2020-04-20 10:39:01+00:00,318.9679,2.09,12.57,47.84626,-54.09684
2020-04-20 10:49:01+00:00,317.0264,2.1,12.57,47.84626,-54.09684
2020-04-20 10:59:01+00:00,320.9047,2.09,12.57,47.84626,-54.09684
2020-04-20 11:09:01+00:00,322.4163,2.08,12.57,47.84626,-54.09684
2020-04-20 11:19:01+00:00,316.8447,2.08,12.73,47.84626,-54.09684
2020-04-20 11:29:01+00:00,319.7713,2.08,12.73,47.84626,-54.09684
2020-04-20 11:39:01+00:00,323.148,2.08,12.73,47.84626,-54.09684
2020-04-20 11:49:01+00:00,315.6397,2.03,12.73,47.84626,-54.09684
2020-04-20 11:59:01+00:00,310.343,2.04,12.73,47.84626,-54.09684
2020-04-20 12:09:01+00:00,312.328,2.07,12.73,47.84626,-54.09684
2020-04-20 12:19:01+00:00,310.768,2.06,12.97,47.84626,-54.09684
2020-04-20 12:29:01+00:00,301.853,2.01,12.97,47.84626,-54.09684
2020-04-20 12:39:01+00:00,301.0647,2.0,12.97,47.84626,-54.09684
2020-04-20 12:49:01+00:00,299.4397,2.0,12.97,47.84626,-54.09684
2020-04-20 12:59:01+00:00,292.2213,2.01,12.97,47.84626,-54.09684
2020-04-20 13:09:01+00:00,285.0614,2.03,12.97,47.84626,-54.09684
2020-04-20 13:19:01+00:00,278.0013,2.03,13.13,47.84626,-54.09684
2020-04-20 13:29:01+00:00,272.5364,2.08,13.13,47.84626,-54.09684
2020-04-20 13:39:01+00:00,263.848,2.03,13.13,47.84626,-54.09684
2020-04-20 13:49:01+00:00,258.7248,2.01,13.13,47.84626,-54.09684
2020-04-20 13:59:01+00:00,249.0714,2.0,13.13,47.84626,-54.09684
2020-04-20 14:09:01+00:00,238.3763,2.0,13.13,47.84626,-54.09684
2020-04-20 14:19:01+00:00,230.8998,1.9,14.0,47.84626,-54.09684
2020-04-20 14:29:01+00:00,224.1014,1.9,14.0,47.84626,-54.09684
2020-04-20 14:39:01+00:00,217.1297,1.9,14.0,47.84626,-54.09684
2020-04-20 14:49:01+00:00,214.9581,1.9,14.0,47.84626,-54.09684
2020-04-20 14:59:01+00:00,214.1848,1.9,14.0,47.84626,-54.09684
2020-04-20 15:09:01+00:00,209.8832,1.9,14.0,47.84626,-54.09684
2020-04-20 15:19:01+00:00,201.0098,1.9,14.48,47.84626,-54.09684
2020-04-20 15:29:01+00:00,199.2914,1.92,14.48,47.84626,-54.09684
2020-04-20 15:39:01+00:00,201.3764,1.95,14.48,47.84626,-54.09684
2020-04-20 15:49:01+00:00,199.4315,2.0,14.48,47.84626,-54.09684
2020-04-20 15:59:01+00:00,197.4898,2.0,14.48,47.84626,-54.09684
2020-04-20 16:09:01+00:00,196.5365,2.12,14.48,47.84626,-54.09684
2020-04-20 16:19:01+00:00,196.5831,2.26,14.64,47.84626,-54.09684
2020-04-20 16:29:01+00:00,198.4498,2.3,14.64,47.84626,-54.09684
2020-04-20 16:39:01+00:00,201.0031,2.2,14.64,47.84626,-54.09684
2020-04-20 16:49:01+00:00,203.7548,2.1,14.64,47.84626,-54.09684
2020-04-20 16:59:01+00:00,208.8181,2.02,14.64,47.84626,-54.09684
2020-04-20 17:09:01+00:00,213.7198,2.03,14.64,47.84626,-54.09684
2020-04-20 17:19:01+00:00,212.6214,2.0,14.48,47.84626,-54.09684
2020-04-20 17:29:01+00:00,213.4447,2.0,14.48,47.84626,-54.09684
2020-04-20 17:39:01+00:00,222.8681,2.0,14.48,47.84626,-54.09684
2020-04-20 17:49:01+00:00,225.3747,2.0,14.48,47.84626,-54.09684
2020-04-20 17:59:01+00:00,222.3398,2.0,14.48,47.84626,-54.09684
2020-04-20 18:09:01+00:00,227.8181,2.0,14.48,47.84626,-54.09684
2020-04-20 18:19:01+00:00,236.1431,2.04,14.24,47.84626,-54.09684
2020-04-20 18:29:01+00:00,238.2014,2.06,14.24,47.84626,-54.09684
2020-04-20 18:39:01+00:00,240.6897,2.07,14.24,47.84626,-54.09684
2020-04-20 18:49:01+00:00,257.4014,2.08,14.24,47.84626,-54.09684
2020-04-20 18:59:01+00:00,265.9481,2.1,14.24,47.84626,-54.09684
2020-04-20 19:09:01+00:00,260.1748,2.1,14.24,47.84626,-54.09684
2020-04-20 19:19:01+00:00,262.578,2.1,14.08,47.84626,-54.09684
2020-04-20 19:29:01+00:00,274.8698,2.1,14.08,47.84626,-54.09684
2020-04-20 19:39:01+00:00,275.6797,2.1,14.08,47.84626,-54.09684
2020-04-20 19:49:01+00:00,266.6881,2.1,14.08,47.84626,-54.09684
2020-04-20 19:59:01+00:00,269.3331,2.1,14.08,47.84626,-54.09684
2020-04-20 20:09:01+00:00,277.1448,2.09,14.08,47.84626,-54.09684
2020-04-20 20:19:01+00:00,278.6447,2.03,14.0,47.84626,-54.09684
2020-04-20 20:29:01+00:00,284.3947,2.0,14.0,47.84626,-54.09684
2020-04-20 20:39:01+00:00,300.123,2.0,14.0,47.84626,-54.09684
2020-04-20 20:49:01+00:00,312.8947,2.04,14.0,47.84626,-54.09684
2020-04-20 20:59:01+00:00,316.593,2.05,14.0,47.84626,-54.09684
2020-04-20 21:09:01+00:00,319.6363,2.05,14.0,47.84626,-54.09684
2020-04-20 21:19:01+00:00,329.7496,2.06,13.84,47.84626,-54.09684
2020-04-20 21:29:01+00:00,330.898,2.07,13.84,47.84626,-54.09684
2020-04-20 21:39:01+00:00,333.5579,2.07,13.84,47.84626,-54.09684
2020-04-20 21:49:01+00:00,336.033,2.08,13.84,47.84626,-54.09684
2020-04-20 21:59:01+00:00,347.4729,2.07,13.84,47.84626,-54.09684
2020-04-20 22:09:01+00:00,352.7279,2.06,13.84,47.84626,-54.09684
2020-04-20 22:19:01+00:00,357.3929,2.08,13.44,47.84626,-54.09684
2020-04-20 22:29:01+00:00,365.1429,2.09,13.44,47.84626,-54.09684
2020-04-20 22:39:01+00:00,368.4646,2.09,13.44,47.84626,-54.09684
2020-04-20 22:49:01+00:00,365.7197,2.1,13.44,47.84626,-54.09684
2020-04-20 22:59:01+00:00,368.7829,2.1,13.44,47.84626,-54.09684
2020-04-20 23:09:01+00:00,372.5363,2.1,13.44,47.84626,-54.09684
2020-04-20 23:19:01+00:00,368.6345,2.1,13.05,47.84626,-54.09684
2020-04-20 23:29:01+00:00,356.87800000000016,2.1,13.05,47.84626,-54.09684
2020-04-20 23:39:01+00:00,357.3796,2.1,13.05,47.84626,-54.09684
2020-04-20 23:49:01+00:00,364.7112,2.1,13.05,47.84626,-54.09684
2020-04-20 23:59:01+00:00,358.4913,2.0,13.05,47.84626,-54.09684
